Miscellaneous Local Product
Issued by NWS Hastings, NE

Home | Current Version | Previous Version | Text Only | Print | Product List | Glossary Off
Versions: 1 2 3 4 5 6 7 8 9 10 11 12 13 14 15 16 17 18 19 20 21 22 23 24 25 26 27 28 29 30 31 32 33 34 35 36 37 38 39 40 41 42 43 44 45 46 47 48 49 50

000
AXUS43 KGID 271302
MISGRI

GID CWA HOURLY WEATHER ROUNDUP
NATIONAL WEATHER SERVICE HASTINGS NE
700 AM CST MON FEB 27 2017

NOTE: "FAIR" INDICATES FEW OR NO CLOUDS BELOW 12,000 FEET WITH NO
SIGNIFICANT WEATHER AND/OR OBSTRUCTIONS TO VISIBILITY.

...SOUTH CENTRAL NEBRASKA...

CITY           SKY/WX    TMP DP  RH WIND       PRES   REMARKS
GRAND ISLAND   CLEAR     24  18  77 S8        29.92S WCI  15
HASTINGS       CLEAR     27  16  63 S7        29.92R WCI  19
KEARNEY        CLEAR     21  12  68 S5        29.89F WCI  15
ORD            CLEAR     14   9  80 CALM      29.88F
YORK           CLEAR     25  19  80 CALM      29.94R
AURORA         CLEAR     26  17  68 S5        29.92S WCI  20
LEXINGTON      CLEAR     17  12  83 N3        29.88R
HOLDREGE       CLEAR     22  11  63 S5        29.88S WCI  15
HEBRON         CLEAR     21  17  86 CALM      29.95R

...NEBRASKA PANHANDLE...

CITY           SKY/WX    TMP DP  RH WIND       PRES   REMARKS
CHADRON        CLOUDY    24  13  62 SW8       29.66F WCI  15
ALLIANCE       CLOUDY    12   6  77 S8        29.69F WCI   0
SCOTTSBLUFF    CLOUDY    13   5  70 E7        29.69F WCI   3
SIDNEY         CLOUDY    14   8  77 SW5       29.71F WCI   6

...WESTERN AND NORTH CENTRAL NEBRASKA...

CITY           SKY/WX    TMP DP  RH WIND       PRES   REMARKS
VALENTINE      CLOUDY    16   6  65 SW15      29.76F WCI   1
AINSWORTH      CLEAR     25  13  62 S16       29.78F WCI  12
ONEILL         CLEAR     17  10  77 S7        29.86F WCI   7
BROKEN BOW     CLEAR     15   9  76 SE3       29.86F
IMPERIAL       CLOUDY    19  10  68 CALM      29.81F
NORTH PLATTE   CLOUDY    14   9  80 SE5       29.85F WCI   6
MCCOOK         CLOUDY    13   8  81 CALM      29.86S

...EASTERN NEBRASKA...

CITY           SKY/WX    TMP DP  RH WIND       PRES   REMARKS
NORFOLK        CLEAR     18  16  92 CALM      29.92R
SO SIOUX CITY  CLOUDY    16  13  88 E10       29.95F WCI   4
TEKAMAH        CLEAR     19  15  84 S5        29.97S WCI  12
COLUMBUS       CLEAR     19  16  86 CALM      29.94S
ALBION         CLEAR     16  11  83 CALM      29.92S
OMAHA EPPLEY   CLEAR     24  18  77 SE5       29.98S WCI  18
OFFUTT AFB     CLEAR     18  15  89 CALM      29.97F
MILLARD        CLEAR     24  22  92 CALM      29.97F
LINCOLN        CLEAR     16  13  88 N5        29.97S WCI   9
NEBRASKA CITY  CLEAR     25  20  82 S8        29.98R WCI  16
BEATRICE       CLEAR     25  19  77 SE3       29.95S
FALLS CITY     CLEAR     23  22  96 SE7       29.99S FOG     WCI  15

...NORTHERN KANSAS...

CITY           SKY/WX    TMP DP  RH WIND       PRES   REMARKS
GOODLAND       CLOUDY    25  22  88 S13       29.77F WCI  14
HILL CITY      CLEAR     20  15  81 CALM      29.88F
PHILLIPSBURG   CLEAR     14  10  85 CALM      29.91S
SMITH CENTER   CLEAR     19  16  86 E6        29.92S WCI  11
HAYS           CLEAR     24  18  77 E3        29.90F
RUSSELL        CLEAR     28  22  78 S12       29.89S WCI  18
CONCORDIA      CLEAR     26  21  81 SE5       29.93S WCI  20
SALINA         CLEAR     28  23  81 SE9       29.95S WCI  19
TOPEKA         FOG       25  25 100 CALM      30.01S VSB 1/4



USA.gov is the U.S. government's official web portal to all federal, state and local government web resources and services.